Other Public Products
Issued by NWS Grand Forks, ND

Home | Current Version | Previous Version | Text Only | Print | Product List | Glossary On
Versions: 1 2 3 4 5 6 7 8 9 10 11 12 13 14 15 16 17 18 19 20 21 22 23 24 25 26 27 28 29 30 31 32 33 34 35 36 37 38 39 40 41 42 43 44 45 46 47 48 49 50
000
FPUS83 KFGF 281110
OPUFGF
PRAIRIE TO PINES WEATHER ROUNDUP
NATIONAL WEATHER SERVICE EASTERN NORTH DAKOTA/GRAND FORKS ND
600 AM CDT MON JUL 28 2014

 **SATELLITE DATA USED TO AUGMENT SKY COVER AT AUTOMATED STATIONS**
 *****  WEATHER ACROSS EASTERN NORTH DAKOTA  *****

CITY           SKY/WX    TMP DP  RH WIND       PRES   REMARKS
GRAND FORKS    CLOUDY    60  55  83 NW5       30.25
GRAND FORKS AF CLOUDY    59  56  89 NW6       30.27R
GRAND CITY NWS   N/A     59 N/A N/A N2          N/A
BUXTON         NOT AVBL
DEVILS LAKE    CLEAR     52  46  82 NW3       30.28S
FARGO          CLOUDY    60  55  83 N6        30.25R
WAHPETON ARPT  CLOUDY    59  54  82 N6        30.26R
$$

 *****  WEATHER ACROSS CENTRAL AND WESTERN NORTH DAKOTA  *****

CITY           SKY/WX    TMP DP  RH WIND       PRES   REMARKS
JAMESTOWN      CLOUDY    56  52  86 NW7       30.29S
BISMARCK       CLEAR     46  46 100 CALM      30.35R
MINOT          MOCLDY    52  49  89 SW6       30.31S
MINOT AFB      PTCLDY    51  50  99 CALM      30.31S
GARRISON         N/A     49  47  93 NW5       30.33R
WILLISTON      CLEAR     51  49  92 CALM      30.32R
DICKINSON      CLEAR     49  46  90 S7        30.34R
HETTINGER      CLEAR     45  43  93 CALM      30.36S
$$

 *****  OTHER OBSERVATIONS NORTHEAST NORTH DAKOTA  *****

CITY           SKY/WX    TMP DP  RH WIND       PRES   REMARKS
WALHALLA         N/A     52  52 100 W3          N/A
LANGDON        FAIR      46  46 100 CALM      30.29S
CAVALIER       PTSUNNY   57  54  88 NW6       30.27R
GRAFTON        CLOUDY    57  55  94 NW6       30.26R
CANDO          FAIR      48  48 100 W3        30.31R
FORT TOTTEN    NOT AVBL
ROLLA          FAIR      46  46 100 CALM      30.32R
RUGBY          FOG       46  46 100 CALM      30.31R VSB 1/2
 ***** THE ABOVE OBSERVATIONS ARE NON NWS ARE NOT QUALITY
        CONTROLLED AND MAY MIS-REPORT RAIN FOR SNOW...
$$

 *****  OTHER OBSERVATIONS SOUTHEAST NORTH DAKOTA *****

CITY           SKY/WX    TMP DP  RH WIND       PRES   REMARKS
COOPERSTOWN    NOT AVBL
VALLEY CITY    CLOUDY    57  57 100 NW8       30.28S
OAKES          NOT AVBL
GWINNER        CLOUDY    61  57  88 NW6       30.28S
SHEYENNE NWR     N/A     59  55  87 NW2       29.95S
BUFFALO        NOT AVBL
WYNDMERE       NOT AVBL
 ***** THE ABOVE OBSERVATIONS ARE NON NWS ARE NOT QUALITY
       CONTROLLED AND MAY MIS-REPORT RAIN FOR SNOW...
$$

  *****  WEATHER ACROSS NORTHERN MINNESOTA  *****

CITY           SKY/WX    TMP DP  RH WIND       PRES   REMARKS
FLAG ISLAND    CLEAR     57  55  94 W6        30.20R
WARROAD        MOCLDY    55  52  88 NW5       30.22S
ROSEAU         CLEAR     55  50  82 W5        30.23R
HALLOCK        CLOUDY    55  54  94 NW5       30.25R
THF RVR FALLS  CLOUDY    59  55  88 NW6       30.24S
HALSTAD          N/A     59  55  89 NW5         N/A
FOSSTON        CLOUDY    57  54  88 CALM      30.25R
BAUDETTE       PTCLDY    56  54  93 CALM      30.22R
WASKISH        PTCLDY    57  55  94 CALM      30.21R
CROOKSTON      CLOUDY    57  55  94 NW5       30.26R
$$
  *****  WEATHER ACROSS CENTRAL AND WEST MINNESOTA  *****

CITY           SKY/WX    TMP DP  RH WIND       PRES   REMARKS
BEMIDJI        CLOUDY    57  55  92 W5        30.22S
PARK RAPIDS    CLOUDY    59  55  87 NW6       30.22R
WADENA         CLOUDY    57  55  94 NW3       30.22S
DETROIT LAKES  CLOUDY    59  55  88 NW5       30.26R
MOORHEAD       CLOUDY    59  59 100 N6        30.26R
FERGUS FALLS   CLOUDY    61  57  88 N7        30.25R
ELBOW LAKE     CLOUDY    59  58  95 NW8       30.24R
MORRIS MN      CLOUDY    61  57  88 NW5       30.23R
STAPLES        CLOUDY    57  55  94 NW5       30.22R
WHEATON        NOT AVBL
$$
  *****  WEATHER ELSEWHERE ACROSS MINNESOTA  *****

CITY           SKY/WX    TMP DP  RH WIND       PRES   REMARKS
DULUTH         CLOUDY    57  53  86 NW6       30.16R
INTRNTL FALLS  PTCLDY    50  49  96 W3        30.18S
ELY            PTCLDY    54  50  87 NW5       30.16S
CLOQUET        CLOUDY    55  54  94 NW5       30.17S
BRAINERD       CLOUDY    61  56  83 NW7       30.20R
HIBBING        CLOUDY    57  52  83 N3        30.18R
ALEXANDRIA     CLOUDY    62  58  86 NW10      30.25R
SAINT CLOUD    CLOUDY    63  58  83 NW5       30.19R
MINNEAPOLIS    MOCLDY    63  58  83 NW6       30.17R
$$

  *****  WEATHER ACROSS SOUTH DAKOTA  *****

CITY           SKY/WX    TMP DP  RH WIND       PRES   REMARKS
SIOUX FALLS    CLOUDY    59  55  87 NW9       30.26R
BROOKINGS      NOT AVBL
WATERTOWN      CLOUDY    58  56  93 N7        30.26S
HURON          CLEAR     48  47  96 W5        30.29R
SISSETON         N/A     60  58  92 N8        30.25R
ABERDEEN       CLOUDY    55  53  93 N7        30.29R
MITCHELL       CLEAR     53  52  96 NW7       30.29S
PIERRE         CLEAR     53  51  93 W3        30.31S
MOBRIDGE       FOG       51  51 100 N5        30.31S VSB 3/4
RAPID CITY     PTCLDY    51  49  92 CALM      30.35F
$$

  *****  SOME WEATHER IN NEARBY STATES *****

CITY           SKY/WX    TMP DP  RH WIND       PRES   REMARKS
GLASGOW MT     CLEAR     55  50  83 E10       30.26S
GREAT FALLS MT CLEAR     56  41  57 S6        30.22R
CHEYENNE WY    CLEAR     54  51  90 W6        30.40S
SCOTTSBLUFF NE CLEAR     61  49  64 E12       30.32S
OMAHA NE       CLEAR     58  54  86 N6        30.22S
DES MOINES IA  PTCLDY    61  58  90 N6        30.16R
DAVENPORT IA   CLEAR     58  54  86 N10       30.09R
CHICAGO IL     PTCLDY    60  47  61 NW12      29.99R
EAU CLAIRE WI  CLOUDY    57  54  89 CALM      30.14S
LA CROSSE WI   MOCLDY    56  52  86 N6        30.14R
$$

  *****  SOME NATIONAL WEATHER *****

CITY           SKY/WX    TMP DP  RH WIND       PRES   REMARKS
LA GUARDIA NY  CLOUDY    72  68  88 S8        29.55R
RALEIGH NC     PTCLDY    74  61  63 W7        29.76R
ATLANTA GA     MOCLDY    78  73  84 W8        29.93S
NEW ORLEANS LA MOCLDY    79  76  90 W9        30.07R
OKLAHOMA CITY  MOCLDY    76  61  59 NE15      30.17R
ALBUQUERQUE NM MOCLDY    70  55  59 N6        30.36R
SALT LAKE CITY MOCLDY    82  44  26 NE3       30.14R
LOS ANGELES CA CLOUDY    68  65  90 W5        30.04R
BOISE ID       PTCLDY    74  39  28 S5        30.03R
SEATTLE WA     CLEAR     65  28  24 NE7       30.11S
$$

*** WEATHER ACROSS MANITOBA...SASKATCHEWAN AND ONTARIO ***
                ***ONTARIO***

CITY           SKY/WX    TMP DP  RH WIND       PRES   REMARKS
GERALDTON      CLOUDY    52  50  93 W2        30.03S
THUNDER BAY    PTCLDY    52  50  93 SW6       30.09R
SIOUX LOOKOUT  MOCLDY    57  54  88 NW7       30.14S
TORONTO        LGT RAIN  63  59  88 N13G22    29.66R
BIG TROUT LK   CLOUDY    59  54  82 NW7       30.04S
PICKLE LAKE    CLOUDY    59  50  72 NW6       30.07
DRYDEN         CLEAR     50  50 100 W8        30.17R
KENORA         MOCLDY    55  54  94 NW8       30.21S
$$
                *** MANITOBA***

CITY           SKY/WX    TMP DP  RH WIND       PRES   REMARKS
BRANDON        PTCLDY    46  46 100 NW5       30.31R
DAUPHIN        CLEAR     48  46  93 W7        30.29S
ISLAND LAKE    MOCLDY    63  55  77 NW7       30.15S
PILOT MOUND      N/A     46  46 100 W3          N/A
THE PAS        MOCLDY    52  50  93 CALM      30.26S
THOMPSON       PTCLDY    46  46 100 W6        30.19S
WINNIPEG       PTCLDY    46  45  93 W8        30.26R
LYNN LAKE      CLEAR     54  50  87 W7        30.23S
CHURCHILL      PTCLDY    61  54  77 NW10      30.03S
GILLAM         PTCLDY    61  54  77 NW8       30.10S
$$
                ***SASKATCHEWAN***

CITY           SKY/WX    TMP DP  RH WIND       PRES   REMARKS
ESTEVAN        MOCLDY    54  54 100 CALM      30.32R FOG
KINDERSLEY     PTCLDY    55  52  88 SE7       30.26S
LLOYDMINSTER   CLEAR     57  54  88 SW8       30.25S
PRINCE ALBERT  FOG       48  48 100 NE2       30.29R VSB 3/4
REGINA         PTCLDY    54  52  94 SE7       30.30S



USA.gov is the U.S. government's official web portal to all federal, state and local government web resources and services.